Volver al catálogo

COSMOS 2251 DEB

ActivoLEO
NORAD 38068·DEBRIS·🇷🇺 Russia

Lanzado Jun 16, 1993 desde Plesetsk Cosmodrome

Loading…

Próximos Pases (próximas 24 horas)

TLE

ObsoletoSource: Space-Track

Época: Sep 6, 2026, 05:00 UTC

1 38068U 93036BSA 26249.20854977  .00000282  00000-0  10508-3 0  9990
2 38068  74.0221 176.6250 0026751 205.8243 154.1576 14.36336959704868

Sigue COSMOS 2251 DEB en tiempo real con AllMySat

Download on the App Store